[[{"header":{"parameterUnit":"m.s-1","parameterCategory":1,"la1":30.2992,"la2":30.254,"lo1":-89.0895,"lo2":-89.0443,"dy":0.0025,"dx":0.0025,"nx":19,"ny":19,"refTime":"2026-03-23T03:00:00:Z","depth":0,"parameterNumber":2,"parameterNumberName":"U-component_of_WINDS"},"data":[0,0,0,4.0547,4.055,4.0678,4.0678,4.085,4.0852,0,0,0,0,0,0,0,0,0,0,0,4.0514,4.0516,4.0547,4.055,4.0678,4.0678,4.085,4.0852,0,0,0,0,0,0,0,0,0,0,0,4.0514,4.0515,4.0517,4.0551,4.0678,4.0678,4.085,4.075,0,0,0,0,0,0,0,0,0,0,4.0624,4.06,4.0515,4.0517,4.0551,4.0678,4.0678,4.0745,4.0756,4.0796,0,4.0834,0,4.0846,4.0864,4.0865,0,0,0,4.0546,4.059,4.062,4.0517,4.0553,4.0677,4.0619,4.0751,4.0764,4.0811,4.0836,4.0842,4.0849,4.0865,4.0866,4.1115,4.1116,0,0,4.0539,4.054,4.0612,4.0629,4.061,4.0615,4.0623,4.0759,4.0786,4.0837,4.0846,4.0852,4.0867,4.0868,4.1114,4.1115,0,0,0,4.0521,4.0535,4.0561,4.0622,4.0644,4.0619,4.0628,4.0779,4.0788,4.0848,4.0854,4.0868,4.087,4.1112,4.1114,4.1185,0,0,0,4.0517,4.0525,4.0559,4.0561,4.0642,4.0714,4.0646,4.0779,4.0794,4.0853,4.0868,4.0872,4.1111,4.1113,4.1179,4.1217,0,0,0,4.0504,4.0523,4.0544,4.056,4.0616,4.0711,4.0728,4.0782,4.0798,4.0865,4.0872,4.111,4.1113,4.1175,4.1209,4.1284,0,0,0,4.0491,4.0602,4.0545,4.0672,4.0615,4.0754,4.0727,4.083,4.0896,4.0869,4.1111,4.1114,4.1173,4.1205,4.1279,4.1348,4.1376,0,0,4.0632,4.0619,4.0694,4.0647,4.0797,4.0734,4.0895,4.0953,4.0957,4.1062,4.1068,4.1181,4.1209,4.1283,4.1535,4.1558,0,0,0,4.074,4.0794,4.0833,4.0897,4.0946,4.0991,4.1025,4.1048,4.1137,4.1012,4.1228,4.1244,4.1288,4.1321,4.134,4.1378,4.1129,4.1129,4.1129,4.0941,4.0943,4.1068,4.1087,4.1149,4.1185,4.1236,4.1272,4.1253,4.1305,4.1336,4.1489,4.1527,4.1541,4.1581,4.1372,4.1372,4.1372,4.1372,4.115,4.1227,4.1204,4.1316,4.1318,4.1413,4.1453,4.1437,4.1526,4.1464,4.1503,4.1436,4.1566,4.1601,4.1378,4.1377,4.1376,4.1376,4.1375,4.1282,4.132,4.1347,4.1442,4.1515,4.1529,4.1617,4.1615,4.1613,4.1651,4.1685,4.1684,4.1683,4.1667,4.1668,4.1669,4.1669,4.1669,4.167,4.1409,4.1437,4.1511,4.1575,4.1618,4.1674,4.1713,4.1755,4.1801,4.1792,4.1792,4.177,4.1579,4.1531,4.1678,4.1676,4.1675,4.1675,4.1674,4.162,4.1573,4.1687,4.1731,4.1807,4.1881,4.1879,4.1965,4.1999,4.2043,4.2013,4.1872,4.1858,4.1843,4.1803,4.2012,4.2011,4.2012,4.2012,4.1732,4.1725,4.1844,4.1914,4.1981,4.1992,4.2123,4.2156,4.2182,4.2204,4.2174,4.2121,4.2106,4.2101,4.208,4.2043,4.2308,4.2308,4.2309,4.1862,4.1863,4.1974,4.2001,4.2062,4.2114,4.2238,4.2319,4.2339,4.2321,4.2221,4.2209,4.2124,4.2096,4.2074,4.2041,4.1974,0,0]},{"header":{"parameterUnit":"m.s-1","parameterCategory":1,"la1":30.2992,"la2":30.254,"lo1":-89.0895,"lo2":-89.0443,"dy":0.0025,"dx":0.0025,"nx":19,"ny":19,"refTime":"2026-03-23T03:00:00:Z","depth":0,"parameterNumber":3,"parameterNumberName":"V-component_of_WINDS"},"data":[0,0,0,-0.4985,-0.4984,-0.4968,-0.4968,-0.4947,-0.4946,0,0,0,0,0,0,0,0,0,0,0,-0.499,-0.4989,-0.4985,-0.4984,-0.4968,-0.4968,-0.4947,-0.4946,0,0,0,0,0,0,0,0,0,0,0,-0.499,-0.4989,-0.4989,-0.4984,-0.4968,-0.4968,-0.4947,-0.4959,0,0,0,0,0,0,0,0,0,0,-0.4975,-0.4979,-0.4989,-0.4989,-0.4984,-0.4968,-0.4968,-0.496,-0.4958,-0.4954,0,-0.495,0,-0.4948,-0.4945,-0.4945,0,0,0,-0.4984,-0.498,-0.4976,-0.4989,-0.4984,-0.4968,-0.4975,-0.4959,-0.4957,-0.4952,-0.495,-0.4949,-0.4948,-0.4945,-0.4945,-0.4922,-0.4922,0,0,-0.4985,-0.4986,-0.4977,-0.4975,-0.4979,-0.4976,-0.4975,-0.4958,-0.4956,-0.495,-0.4949,-0.4947,-0.4945,-0.4945,-0.4922,-0.4922,0,0,0,-0.4988,-0.4987,-0.4983,-0.4976,-0.4973,-0.4975,-0.4974,-0.4956,-0.4955,-0.4949,-0.4947,-0.4945,-0.4944,-0.4922,-0.4922,-0.4919,0,0,0,-0.4988,-0.4989,-0.4984,-0.4984,-0.4974,-0.4965,-0.4973,-0.4956,-0.4954,-0.4947,-0.4945,-0.4944,-0.4922,-0.4922,-0.492,-0.4917,0,0,0,-0.4991,-0.4989,-0.4987,-0.4984,-0.4978,-0.4965,-0.4963,-0.4956,-0.4953,-0.4945,-0.4944,-0.4923,-0.4922,-0.492,-0.4918,-0.4912,0,0,0,-0.4993,-0.4983,-0.4987,-0.4975,-0.4978,-0.4964,-0.4963,-0.4952,-0.4944,-0.4944,-0.4922,-0.4922,-0.492,-0.4918,-0.4912,-0.4907,-0.4905,0,0,-0.4981,-0.4982,-0.4975,-0.4978,-0.4964,-0.4966,-0.4952,-0.4943,-0.494,-0.4928,-0.4928,-0.492,-0.4918,-0.4912,-0.4895,-0.4893,0,0,0,-0.4972,-0.4967,-0.4963,-0.4957,-0.4951,-0.4945,-0.4939,-0.4936,-0.4926,-0.4934,-0.4916,-0.4915,-0.4911,-0.4909,-0.4908,-0.4904,-0.4921,-0.4921,-0.4921,-0.4957,-0.4955,-0.4944,-0.4941,-0.4935,-0.493,-0.4924,-0.4919,-0.4918,-0.4914,-0.491,-0.49,-0.4897,-0.4896,-0.4893,-0.4908,-0.4908,-0.4908,-0.4908,-0.4939,-0.4932,-0.4934,-0.4923,-0.4922,-0.4913,-0.4908,-0.4908,-0.4899,-0.4903,-0.4899,-0.4903,-0.4895,-0.4892,-0.4908,-0.4908,-0.4908,-0.4908,-0.4908,-0.4928,-0.4925,-0.4922,-0.4914,-0.4907,-0.4905,-0.4897,-0.4896,-0.4894,-0.4891,-0.4887,-0.4887,-0.4887,-0.489,-0.489,-0.489,-0.489,-0.489,-0.489,-0.4918,-0.4915,-0.4909,-0.4903,-0.49,-0.4894,-0.489,-0.4886,-0.4881,-0.4881,-0.4881,-0.4881,-0.4895,-0.4898,-0.4889,-0.4889,-0.4889,-0.4889,-0.4889,-0.4899,-0.4904,-0.4894,-0.4891,-0.4884,-0.4878,-0.4878,-0.487,-0.4867,-0.4863,-0.4864,-0.4875,-0.4875,-0.4876,-0.4878,-0.4865,-0.4865,-0.4865,-0.4865,-0.4889,-0.489,-0.4881,-0.4875,-0.487,-0.4869,-0.4858,-0.4855,-0.4853,-0.4851,-0.4853,-0.4856,-0.4858,-0.4857,-0.4858,-0.486,-0.4843,-0.4843,-0.4843,-0.4878,-0.4878,-0.4869,-0.4868,-0.4863,-0.4859,-0.4849,-0.4843,-0.4841,-0.4842,-0.4849,-0.485,-0.4856,-0.4858,-0.4858,-0.486,-0.4864,0,0]}]]